Location: Unspecified
(48.5670°N, 0.0000°E)
Time: 14:48:58
(UTC+00:00)

Vanguard 2 Rocket - Pass Details

Date: 30 August 2019
Orbit: 554 x 3327 km, 32.9° (Epoch: 19 September)

Event Time Altitude Azimuth Distance (km) Brightness Sun altitude
Rises 04:51:03 0° 262° (W) 5,137 - -4.4°
Exits shadow 04:52:26 - 259° (WSW) 4,842 9.9 -4.2°
Reaches altitude 10° 04:54:17 10° 254° (WSW) 4,485 9.7 -3.9°
Maximum altitude 05:06:04 38° 193° (SSW) 3,704 9.8 -2.1°
Drops below altitude 10° 05:22:40 10° 135° (SE) 6,239 11.6 0.6°
Sets 05:28:15 0° 129° (SE) 7,309 12.1 1.5°
